GW6504 Weather Reports


Display with metric or nautical units.
time (UTC)temp
F
wind
direction
speed
MPH
gust
MPH
rain 1hr
in
rain 24hr
in
rain mn
in
humidity
%
barometer
mb
20260503225003 36 0 0.0 0.0 0.00 0.01 0.00 80 1009.2
20260503224503 36 0 0.0 0.0 0.00 0.01 0.00 79 1009.3
20260503224003 36 0 0.0 0.0 0.00 0.01 0.00 79 1009.2
20260503223503 37 0 0.0 0.0 0.00 0.01 0.00 79 1009.3
20260503223003 37 0 0.0 0.0 0.00 0.01 0.00 79 1009.3
20260503222503 37 0 0.0 0.0 0.00 0.01 0.00 79 1009.2
20260503222215 37 0 0.0 0.0 0.00 0.01 0.00 78 1009.4
20260503221503 37 0 0.0 0.0 0.00 0.01 0.00 82 1009.5
20260503221004 38 0 0.0 0.0 0.00 0.01 0.00 81 1009.5
20260503220714 38 0 0.0 0.0 0.00 0.01 0.00 81 1009.5
20260503220004 38 0 0.0 0.0 0.00 0.01 0.00 80 1009.5
20260503215504 39 0 0.0 0.0 0.00 0.01 0.00 80 1009.3
20260503215003 39 0 0.0 0.0 0.00 0.01 0.00 80 1009.5
20260503214503 39 0 0.0 0.0 0.00 0.01 0.00 80 1009.3
20260503214004 39 0 0.0 0.0 0.00 0.01 0.00 79 1009.4
20260503213503 40 0 0.0 0.0 0.00 0.01 0.00 78 1009.4
20260503213003 40 0 0.0 0.0 0.00 0.01 0.00 79 1009.5
20260503212503 40 0 0.0 0.0 0.00 0.01 0.00 78 1009.6
20260503212003 40 0 0.0 0.0 0.00 0.01 0.00 78 1009.7
20260503211503 40 0 0.0 0.0 0.00 0.01 0.00 78 1009.7
20260503211003 40 0 0.0 0.0 0.00 0.01 0.00 78 1009.7
20260503210503 40 0 0.0 0.0 0.00 0.01 0.00 78 1009.7
20260503210228 40 0 0.0 0.0 0.00 0.01 0.00 78 1009.7
20260503205503 41 0 0.0 0.0 0.00 0.01 0.01 77 1009.7
20260503205003 41 0 0.0 0.0 0.00 0.01 0.01 77 1009.7
20260503204503 41 0 0.0 0.0 0.00 0.01 0.01 77 1009.7
20260503204003 41 0 0.0 0.0 0.00 0.01 0.01 76 1009.7
20260503203503 42 0 0.0 0.0 0.00 0.01 0.01 76 1009.7
20260503203215 42 0 0.0 0.0 0.00 0.01 0.01 76 1009.6
20260503202503 42 0 0.0 0.0 0.00 0.01 0.01 75 1009.6
20260503202004 42 0 0.0 0.0 0.00 0.01 0.01 75 1009.6
20260503201503 43 0 0.0 0.0 0.00 0.01 0.01 74 1009.6
20260503201003 43 0 0.0 0.0 0.00 0.01 0.01 73 1009.6
20260503200503 43 0 0.0 0.0 0.00 0.01 0.01 73 1009.6
20260503200213 43 0 0.0 0.0 0.00 0.01 0.01 73 1009.5
20260503195503 43 0 0.0 0.0 0.00 0.01 0.01 71 1009.5
20260503195003 43 0 0.0 0.0 0.00 0.01 0.01 71 1009.5
20260503194717 44 0 0.0 0.0 0.00 0.01 0.01 71 1009.5
20260503194003 44 0 0.0 0.0 0.00 0.01 0.01 70 1009.5
20260503193504 44 0 0.0 0.0 0.00 0.01 0.01 70 1009.4
20260503193003 45 0 0.0 0.0 0.00 0.01 0.01 68 1009.5
20260503192503 45 0 0.0 0.0 0.00 0.01 0.01 67 1009.5
20260503192003 46 0 0.0 0.0 0.00 0.01 0.01 66 1009.5
20260503191503 46 0 0.0 0.0 0.00 0.01 0.01 66 1009.6
20260503191213 46 0 0.0 0.0 0.00 0.01 0.01 66 1009.6
20260503190503 47 0 0.0 0.0 0.00 0.01 0.01 66 1009.5
20260503190003 47 0 0.0 0.0 0.00 0.01 0.01 66 1009.4
20260503185717 47 0 0.0 0.0 0.00 0.01 0.01 65 1009.4
20260503185003 47 0 0.0 0.0 0.00 0.01 0.01 65 1009.6
20260503184504 47 0 0.0 0.0 0.00 0.01 0.01 65 1009.7
20260503184003 48 0 0.0 0.0 0.00 0.01 0.01 66 1009.5
20260503183503 48 0 0.0 0.0 0.00 0.01 0.01 65 1009.5
20260503183004 48 0 0.0 0.0 0.00 0.01 0.01 65 1009.6
20260503182503 48 0 0.0 0.0 0.00 0.01 0.01 66 1009.6
20260503182004 48 0 0.0 0.0 0.00 0.01 0.01 65 1009.6
20260503181505 48 315 0.0 1.0 0.00 0.01 0.01 65 1009.5
20260503181003 48 315 0.0 1.0 0.00 0.01 0.01 66 1009.4
20260503180503 48 315 0.0 1.0 0.00 0.01 0.01 67 1009.6
20260503180004 48 0 0.0 0.0 0.00 0.01 0.01 68 1009.4
20260503175503 48 0 0.0 0.0 0.00 0.01 0.01 66 1009.3
20260503175003 49 0 0.0 0.0 0.00 0.01 0.01 66 1009.5
20260503174503 49 0 0.0 0.0 0.00 0.01 0.01 66 1009.4
20260503174003 49 0 0.0 0.0 0.00 0.01 0.01 66 1009.4
20260503173503 49 0 0.0 0.0 0.00 0.01 0.01 67 1009.5
20260503173003 49 315 0.0 1.0 0.00 0.01 0.01 66 1009.5
20260503172504 49 315 0.0 1.0 0.00 0.01 0.01 66 1009.3
20260503172003 49 315 0.0 1.0 0.00 0.01 0.01 69 1009.4
20260503171503 49 0 0.0 0.0 0.00 0.01 0.01 70 1009.4
20260503171003 49 0 0.0 0.0 0.00 0.01 0.01 71 1009.4
20260503170503 49 0 0.0 0.0 0.00 0.01 0.01 71 1009.3
20260503151004 54 168 0.0 2.0 0.00 0.01 0.01 61 1009.8
20260503150503 54 162 0.0 2.0 0.00 0.01 0.01 61 1010.0
20260503150217 54 162 0.0 2.0 0.00 0.01 0.01 60 1009.9
20260503140217 58 319 0.0 2.0 0.00 0.01 0.01 55 1009.8
20260503131003 61 319 1.0 3.0 0.00 0.01 0.01 51 1009.6
20260503130503 61 301 2.0 2.0 0.00 0.01 0.01 50 1009.8
20260503110716 61 357 2.0 6.0 0.00 0.01 0.01 50 1010.1
20260503110214 60 353 2.0 4.0 0.00 0.01 0.01 50 1009.9
20260503090504 59 271 2.0 4.0 0.00 0.01 0.01 57 1010.2
20260503081004 57 326 1.0 2.0 0.00 0.01 0.01 67 1009.6
20260503080503 57 332 1.0 3.0 0.00 0.01 0.01 66 1009.6
20260503072503 52 326 0.0 3.0 0.00 0.01 0.01 81 1009.4
20260503072215 52 329 0.0 2.0 0.00 0.01 0.01 82 1009.3
20260503071503 51 6 0.0 1.0 0.00 0.01 0.01 84 1009.1
20260503071003 51 333 0.0 1.0 0.00 0.01 0.01 85 1009.1
20260503070503 50 360 0.0 1.0 0.00 0.01 0.01 86 1009.0
20260503055004 47 0 0.0 0.0 0.01 0.01 0.01 89 1008.7
20260503054503 46 0 0.0 0.0 0.01 0.01 0.01 89 1008.7
20260503054003 46 0 0.0 0.0 0.01 0.01 0.01 88 1008.7
20260503053503 46 0 0.0 0.0 0.01 0.01 0.01 88 1008.8
20260503053003 46 0 0.0 0.0 0.00 0.00 0.00 88 1008.8
20260503052503 46 45 0.0 1.0 0.00 0.00 0.00 88 1008.7
20260503052003 46 45 0.0 1.0 0.00 0.00 0.00 87 1008.5
20260503051714 46 45 0.0 1.0 0.00 0.00 0.00 87 1008.6
20260503051003 46 0 0.0 0.0 0.00 0.00 0.00 87 1008.4
20260503050715 46 360 0.0 3.0 0.00 0.00 0.00 87 1008.3
20260503050005 46 7 1.0 3.0 0.00 0.00 0.00 88 1007.9
20260503045503 45 353 0.0 2.0 0.00 0.00 0.00 90 1008.1
20260503045214 45 360 1.0 2.0 0.00 0.00 0.00 90 1008.1
20260503044503 45 13 0.0 2.0 0.00 0.00 0.00 92 1008.2
20260503044003 45 22 0.0 1.0 0.00 0.00 0.00 93 1008.1
20260503043503 44 45 0.0 1.0 0.00 0.00 0.00 94 1008.1
20260503043003 44 58 0.0 2.0 0.00 0.00 0.00 94 1008.1
20260503042714 44 58 0.0 2.0 0.00 0.00 0.00 94 1008.0
20260503042216 43 90 0.0 1.0 0.00 0.00 0.00 94 1007.9
20260503041503 42 0 0.0 0.0 0.00 0.00 0.00 95 1007.8
20260503041003 42 0 0.0 0.0 0.00 0.00 0.00 95 1007.9
20260503040503 41 0 0.0 0.0 0.00 0.00 0.00 94 1008.0
20260503040213 41 0 0.0 0.0 0.00 0.00 0.00 95 1007.9
20260503035503 40 0 0.0 0.0 0.00 0.00 0.00 95 1007.5
20260503035004 40 0 0.0 0.0 0.00 0.00 0.00 95 1007.5
20260503034503 39 0 0.0 0.0 0.00 0.00 0.00 95 1007.4
20260503034003 39 90 0.0 1.0 0.00 0.00 0.00 96 1007.4
20260503033503 38 90 0.0 1.0 0.00 0.00 0.00 96 1007.6
20260503033004 38 0 0.0 0.0 0.00 0.00 0.00 95 1007.2
20260503032503 37 0 0.0 0.0 0.00 0.00 0.00 95 1007.4
20260503032003 37 0 0.0 0.0 0.00 0.00 0.00 91 1007.3
20260503031715 37 0 0.0 0.0 0.00 0.00 0.00 91 1007.3
20260503031003 36 0 0.0 0.0 0.00 0.00 0.00 91 1007.4
20260503030716 36 0 0.0 0.0 0.00 0.00 0.00 91 1007.3
20260503030004 36 0 0.0 0.0 0.00 0.00 0.00 90 1007.3
20260503025717 36 0 0.0 0.0 0.00 0.00 0.00 90 1007.2
20260503025003 36 135 0.0 1.0 0.00 0.00 0.00 90 1007.1
20260503024503 36 135 0.0 1.0 0.00 0.00 0.00 90 1006.9
20260503024003 36 0 0.0 0.0 0.00 0.00 0.00 90 1007.1
20260503023503 36 0 0.0 0.0 0.00 0.00 0.00 90 1006.9
20260503023217 36 0 0.0 0.0 0.00 0.00 0.00 90 1006.8
20260503022715 36 0 0.0 0.0 0.00 0.00 0.00 89 1006.7
20260503022003 36 0 0.0 0.0 0.00 0.00 0.00 89 1007.0
20260503021503 36 0 0.0 0.0 0.00 0.00 0.00 89 1007.4
20260503021003 36 0 0.0 0.0 0.00 0.00 0.00 89 1007.3
20260503020503 36 0 0.0 0.0 0.00 0.00 0.00 89 1007.3
20260503020004 36 0 0.0 0.0 0.00 0.00 0.00 89 1007.2
20260503015503 37 0 0.0 0.0 0.00 0.00 0.00 88 1006.8
20260503015003 37 0 0.0 0.0 0.00 0.00 0.00 88 1007.1
20260503014503 36 0 0.0 0.0 0.00 0.00 0.00 88 1006.9
20260503014003 36 0 0.0 0.0 0.00 0.00 0.00 88 1007.0
20260503013504 36 0 0.0 0.0 0.00 0.00 0.00 88 1006.9
20260503013003 36 0 0.0 0.0 0.00 0.00 0.00 87 1006.9
20260503012715 36 0 0.0 0.0 0.00 0.00 0.00 87 1006.9
20260503012213 36 0 0.0 0.0 0.00 0.00 0.00 87 1007.0
20260503011503 36 0 0.0 0.0 0.00 0.00 0.00 87 1006.7
20260503011004 36 0 0.0 0.0 0.00 0.00 0.00 87 1006.6
20260503010717 37 0 0.0 0.0 0.00 0.00 0.00 87 1006.8
20260503010004 37 0 0.0 0.0 0.00 0.00 0.00 87 1006.6
20260503005503 37 0 0.0 0.0 0.00 0.00 0.00 91 1006.8
20260503005216 38 0 0.0 0.0 0.00 0.00 0.00 91 1006.7
20260503004503 38 0 0.0 0.0 0.00 0.00 0.00 91 1006.7
20260503004003 38 0 0.0 0.0 0.00 0.00 0.00 90 1006.9
20260503003503 38 360 0.0 1.0 0.00 0.00 0.00 90 1006.9
20260503003003 38 360 0.0 1.0 0.00 0.00 0.00 90 1006.9
20260503002716 38 326 0.0 2.0 0.00 0.00 0.00 90 1006.7
20260503002003 39 315 0.0 2.0 0.00 0.00 0.00 89 1006.9
20260503001717 39 135 0.0 1.0 0.00 0.00 0.00 89 1006.7
20260503001003 39 0 0.0 0.0 0.00 0.00 0.00 87 1006.6
20260503000713 40 0 0.0 0.0 0.00 0.00 0.00 87 1006.7
20260503000005 40 0 0.0 0.0 0.00 0.00 0.00 87 1006.9
20260502235503 40 0 0.0 0.0 0.00 0.00 0.00 86 1006.9
20260502235004 40 0 0.0 0.0 0.00 0.00 0.00 85 1006.9
20260502234503 41 0 0.0 0.0 0.00 0.00 0.00 85 1006.8
20260502234003 41 0 0.0 0.0 0.00 0.00 0.00 85 1007.0
20260502233503 41 0 0.0 0.0 0.00 0.00 0.00 83 1007.0
20260502233004 42 0 0.0 0.0 0.00 0.00 0.00 83 1007.0
20260502232503 42 0 0.0 0.0 0.00 0.00 0.00 83 1007.1
20260502232003 42 0 0.0 0.0 0.00 0.00 0.00 82 1007.3
20260502231503 43 90 0.0 1.0 0.00 0.00 0.00 81 1007.2
20260502231003 43 90 0.0 1.0 0.00 0.00 0.00 81 1007.2
20260502230503 43 318 0.0 2.0 0.00 0.00 0.00 81 1007.3
20260502230004 44 19 0.0 2.0 0.00 0.00 0.00 81 1007.1
20260502225503 44 20 1.0 3.0 0.00 0.00 0.00 80 1007.4